Location: Caltech
(34.1382°N, 118.1253°W)
Time: 10:46:13
(UTC-08:00)

Iridium 49 - Visible Passes

Search period start: 04 March 2015 00:00
Search period end: 14 March 2015 01:00
Orbit: 776 x 779 km, 86.4° (Epoch: 03 March)

Date Brightness Start Highest point End Pass type
(mag) Time Alt. Az. Time Alt. Az. Time Alt. Az.
04 Mar 6.1 05:23:45 10° S 05:28:57 82° E 05:34:11 10° N visible
05 Mar 7.4 04:50:40 10° SSE 04:55:30 42° E 05:00:25 10° NNE visible
06 Mar 8.5 04:18:19 10° SE 04:22:08 22° E 04:26:08 10° NNE visible
06 Mar 9.2 18:13:51 10° NW 18:16:42 14° W 18:19:15 10° WSW visible
07 Mar 9.3 03:47:44 10° E 03:48:50 11° E 03:50:19 10° ENE visible
07 Mar 6.0 05:23:53 10° S 05:29:03 67° W 05:34:15 10° N visible
08 Mar 6.5 05:50:25 10° S 05:55:32 63° E 06:00:42 10° N visible
09 Mar 7.8 05:17:35 10° SSE 05:22:07 32° E 05:26:45 10° NNE visible
10 Mar 8.8 04:45:40 10° ESE 04:48:47 17° E 04:52:09 10° NE visible
10 Mar 6.3 06:24:14 10° SSW 06:29:11 44° W 06:34:09 10° NNW visible
11 Mar 6.0 05:50:24 10° S 05:55:37 87° W 06:00:51 10° N visible
12 Mar 7.0 05:17:10 10° SSE 05:22:08 48° E 05:27:09 10° NNE visible
13 Mar 8.2 04:44:39 10° SE 04:48:45 25° E 04:52:59 10° NNE visible
13 Mar 6.8 06:24:49 10° SW 06:29:23 30° W 06:33:53 10° NNW visible
